Find Starlink 6129

NORAD ID: 57116 Int'l Des: 2023-090 Owner: SPXS Country: US Constellation: starlink operational
LEOCIRCULAR

Live Position

Loading 3D Globe...

About Starlink 6129

Description loading...

Upcoming Passes

Passes for default location (London). Set your location on the main map for personalized predictions.

Altitude History

Loading altitude history...

Two-Line Element Set

1 57116U 23090R 26121.03058867 .00000813 00000-0 40002-4 0 9995
2 57116 43.0043 345.4197 0001375 271.3843 88.6851 15.26747029158343
Epoch: May 1, 2026 • Age: 12 hours

Current Status

Altitude 484.9 km
Velocity 7.63 km/s
Sub-Earth Point 12.72°N, 102.87°E
Launch Date Jun 23, 2023
Age 2.8 years
Type internet

Technical Details

Classification Payload
Mass 305.00 kg
Dry Mass 290.00 kg
Total Mass 305.00 kg
Length 0.20 m
Diameter 2.80 m
Span 9.00 m
Shape Box + pan
Manufacturer SPXS
Bus Type Starlink
Phase Status In Orbit
Owner/State SPXS/US

Most Searched